Chania/Souda, Greece

8:27 AM EET on February 25, 2017 (GMT +0200)
Souda Air Base

Weather History for LGSA - October, 2012

Change the Weather History Date:

Sunday, October 28, 2012

  Actual Average Record
Temperature  
Mean Temperature 71 °F -  
Max Temperature 81 °F 67 °F 81 °F (2012)
Min Temperature 61 °F 53 °F 48 °F (1997)
Cooling Degree Days 6    
Growing Degree Days 21 (Base 50)    
Moisture  
Dew Point 57 °F    
Average Humidity 61    
Maximum Humidity 83    
Minimum Humidity 31    
Precipitation  
Precipitation 0.00 in 0.10 in - ()
Sea Level Pressure  
Sea Level Pressure 29.83 in    
Wind  
Wind Speed 2 mph ()    
Max Wind Speed 14 mph    
Max Gust Speed -    
Visibility 6.2 miles    
Events      
Averages and records for this station are not official NWS values.
T = Trace of Precipitation, MM = Missing Value Source: Averaged Metar Reports

Daily Weather History Graph

Daily Weather History Graph

Search for Another Location

Airport or City:

Trip Planner

Search our weather history database for the weather conditions in past years. The results will help you decide how hot, cold, wet, or windy it might be!

Date:

Astronomy

Oct. 28, 2012 Rise Set
Actual Time 6:41 AM EET 5:32 PM EET
Civil Twilight 6:15 AM EET 5:58 PM EET
Nautical Twilight 5:45 AM EET 6:28 PM EET
Astronomical Twilight 5:15 AM EET 6:58 PM EET
Moon 4:39 PM EET (10/28) 5:18 AM EET (10/28)
Length of Visible Light 11h 43m
Length of Day
10h 50m
Waxing Gibbous, 98% of the Moon is Illuminated
Oct 28
Waxing Gibbous
Oct 29
Full
Nov 7
Last Quarter
Nov 14
New
Nov 20
First Quarter

Hourly Weather History & Observations

Time (EET) Temp. Heat Index Dew Point Humidity Pressure Visibility Wind Dir Wind Speed Gust Speed Precip Events Conditions
12:20 AM 64.4 °F - 59.0 °F 83% 29.89 in 6.2 mi Calm Calm - N/A   Scattered Clouds
12:50 AM 64.4 °F - 59.0 °F 83% 29.89 in 6.2 mi Calm Calm - N/A   Scattered Clouds
1:20 AM 64.4 °F - 59.0 °F 83% 29.89 in 6.2 mi Calm Calm - N/A   Scattered Clouds
3:00 AM 63 °F - 56 °F 72% 29.86 in 6 mi Calm Calm - -   Scattered Clouds
3:20 AM 62.6 °F - 57.2 °F 82% 29.86 in 6.2 mi Calm Calm - N/A   Scattered Clouds
3:50 AM 62.6 °F - 57.2 °F 82% 29.86 in 6.2 mi Calm Calm - N/A   Partly Cloudy
3:20 AM 62.6 °F - 57.2 °F 82% 29.86 in 6.2 mi Calm Calm - N/A   Partly Cloudy
3:50 AM 62.6 °F - 57.2 °F 82% 29.83 in 6.2 mi Calm Calm - N/A   Partly Cloudy
4:50 AM 62.6 °F - 57.2 °F 82% 29.83 in 6.2 mi Calm Calm - N/A   Partly Cloudy
5:50 AM 62.6 °F - 57.2 °F 82% 29.83 in 6.2 mi Calm Calm - N/A   Partly Cloudy
6:20 AM 62.6 °F - 57.2 °F 82% 29.83 in 6.2 mi Calm Calm - N/A   Partly Cloudy
6:50 AM 62.6 °F - 55.4 °F 77% 29.80 in 6.2 mi Calm Calm - N/A   Partly Cloudy
7:20 AM 62.6 °F - 55.4 °F 77% 29.83 in 6.2 mi Calm Calm - N/A   Scattered Clouds
7:50 AM 66.2 °F - 57.2 °F 73% 29.83 in 6.2 mi SE 4.6 mph - N/A   Scattered Clouds
8:00 AM 66 °F - 56 °F 63% 29.83 in 6 mi SE 4.6 mph - -   Scattered Clouds
8:20 AM 68.0 °F - 59.0 °F 73% 29.83 in 6.2 mi Calm Calm - N/A   Scattered Clouds
8:50 AM 71.6 °F - 60.8 °F 69% 29.83 in 6.2 mi ENE 4.6 mph - N/A   Scattered Clouds
9:20 AM 73.4 °F - 62.6 °F 69% 29.83 in 6.2 mi Calm Calm - N/A   Scattered Clouds
9:50 AM 75.2 °F - 60.8 °F 61% 29.83 in 6.2 mi WNW 4.6 mph - N/A   Scattered Clouds
10:20 AM 75.2 °F - 60.8 °F 61% 29.83 in 6.2 mi Calm Calm - N/A   Scattered Clouds
10:50 AM 78.8 °F - 57.2 °F 47% 29.86 in 6.2 mi NNW 6.9 mph - N/A   Scattered Clouds
11:20 AM 78.8 °F - 57.2 °F 47% 29.86 in 6.2 mi SE 6.9 mph - N/A   Scattered Clouds
11:50 AM 80.6 °F 81.1 °F 59.0 °F 48% 29.86 in 6.2 mi NE 9.2 mph - N/A   Scattered Clouds
12:20 PM 80.6 °F 81.1 °F 59.0 °F 48% 29.86 in 6.2 mi NE 13.8 mph - N/A   Scattered Clouds
12:50 PM 80.6 °F 80.3 °F 53.6 °F 39% 29.86 in 6.2 mi SE 9.2 mph - N/A   Scattered Clouds
1:20 PM 80.6 °F 80.3 °F 53.6 °F 39% 29.86 in 6.2 mi WNW 4.6 mph - N/A   Scattered Clouds
1:50 PM 82.4 °F 82.0 °F 57.2 °F 42% 29.83 in 6.2 mi WNW 4.6 mph - N/A   Scattered Clouds
2:00 PM 82 °F - 56 °F 31% 29.83 in 6 mi WNW 4.6 mph - -   Scattered Clouds
2:20 PM 82.4 °F 82.0 °F 57.2 °F 42% 29.83 in 6.2 mi WNW 6.9 mph - N/A   Scattered Clouds
2:50 PM 82.4 °F 82.0 °F 57.2 °F 42% 29.83 in 6.2 mi West 5.8 mph - N/A   Scattered Clouds
3:20 PM 82.4 °F 82.0 °F 57.2 °F 42% 29.83 in 6.2 mi West 5.8 mph - N/A   Scattered Clouds
3:50 PM 82.4 °F 82.5 °F 59.0 °F 45% 29.80 in - Variable 3.5 mph - N/A   Clear
4:20 PM 82.4 °F 82.5 °F 59.0 °F 45% 29.80 in - Variable 3.5 mph - N/A   Clear
4:50 PM 77.0 °F - 57.2 °F 50% 29.80 in - West 4.6 mph - N/A   Clear
5:20 PM 77.0 °F - 57.2 °F 50% 29.80 in - West 4.6 mph - N/A   Clear
5:50 PM 73.4 °F - 59.0 °F 61% 29.80 in 6.2 mi Calm Calm - N/A   Scattered Clouds
6:20 PM 73.4 °F - 59.0 °F 61% 29.80 in 6.2 mi Calm Calm - N/A   Scattered Clouds
6:50 PM 71.6 °F - 55.4 °F 57% 29.80 in 6.2 mi Calm Calm - N/A   Scattered Clouds
7:20 PM 71.6 °F - 55.4 °F 57% 29.80 in 6.2 mi Calm Calm - N/A   Scattered Clouds
7:50 PM 69.8 °F - 55.4 °F 60% 29.80 in 6.2 mi Calm Calm - N/A   Scattered Clouds
8:00 PM 69 °F - 56 °F 53% 29.81 in 6 mi Calm Calm - -   Scattered Clouds
8:20 PM 69.8 °F - 55.4 °F 60% 29.80 in 6.2 mi Calm Calm - N/A   Scattered Clouds
8:50 PM 69.8 °F - 55.4 °F 60% 29.83 in 6.2 mi Calm Calm - N/A   Scattered Clouds
9:20 PM 69.8 °F - 55.4 °F 60% 29.83 in 6.2 mi Calm Calm - N/A   Scattered Clouds
9:50 PM 69.8 °F - 55.4 °F 60% 29.83 in 6.2 mi Calm Calm - N/A   Scattered Clouds
10:20 PM 69.8 °F - 55.4 °F 60% 29.83 in 6.2 mi Calm Calm - N/A   Scattered Clouds
10:50 PM 71.6 °F - 51.8 °F 50% 29.80 in 6.2 mi Calm Calm - N/A   Mostly Cloudy